West Paducah, KY

8:31 PM CST on February 22, 2017 (GMT -0600)
Barkley Regional

Weather History for KPAH - October, 2011

Change the Weather History Date:

Wednesday, October 26, 2011

  Actual Average Record
Temperature  
Mean Temperature 64 °F 56 °F  
Max Temperature 76 °F 68 °F 86 °F (1944)
Min Temperature 52 °F 44 °F 28 °F (1968)
Degree Days  
Heating Degree Days 1 10  
Month to date heating degree days 150 175  
Since 1 July heating degree days 186 214  
Cooling Degree Days 0 1  
Month to date cooling degree days 15 37  
Year to date cooling degree days 1698 1537  
Growing Degree Days 14 (Base 50)    
Moisture  
Dew Point 54 °F    
Average Humidity 73    
Maximum Humidity 93    
Minimum Humidity 52    
Precipitation  
Precipitation 0.37 in 0.12 in 1.34 in (1953)
Month to date precipitation 1.28 3.35  
Year to date precipitation 57.38 39.58  
Snow  
Snow 0.00 in 0.00 in T in (1957)
Month to date snowfall 0.0 0.1  
Since 1 July snowfall 0.0 0.1  
Since 1 September snowfall 0.0 0.1  
Snow Depth 0.00 in    
Sea Level Pressure  
Sea Level Pressure 29.88 in    
Wind  
Wind Speed 9 mph (West)    
Max Wind Speed 20 mph    
Max Gust Speed 25 mph    
Visibility 7 miles    
Events Rain    
T = Trace of Precipitation, MM = Missing Value Source: NWS Daily Summary

Daily Weather History Graph

Daily Weather History Graph

Search for Another Location

Airport or City:

Trip Planner

Search our weather history database for the weather conditions in past years. The results will help you decide how hot, cold, wet, or windy it might be!

Date:

Astronomy

Oct. 26, 2011 Rise Set
Actual Time 7:13 AM CDT 6:04 PM CDT
Civil Twilight 6:46 AM CDT 6:31 PM CDT
Nautical Twilight 6:15 AM CDT 7:01 PM CDT
Astronomical Twilight 5:45 AM CDT 7:31 PM CDT
Moon 6:59 AM CDT (10/26) 5:48 PM CDT (10/26)
Length of Visible Light 11h 44m
Length of Day
10h 51m
Waning Crescent, 0% of the Moon is Illuminated
Oct 26
Waning Crescent
Oct 26
New
Nov 2
First Quarter
Nov 10
Full
Nov 18
Last Quarter

Hourly Weather History & Observations

Time (CDT) Temp. Dew Point Humidity Pressure Visibility Wind Dir Wind Speed Gust Speed Precip Events Conditions
12:53 AM 64.9 °F 48.0 °F 54% 29.95 in 10.0 mi SSW 9.2 mph - N/A   Clear
1:53 AM 63.0 °F 48.0 °F 58% 29.94 in 10.0 mi SSW 6.9 mph - N/A   Clear
2:53 AM 64.0 °F 48.0 °F 56% 29.93 in 10.0 mi SSW 8.1 mph - N/A   Clear
3:53 AM 64.0 °F 48.0 °F 56% 29.91 in 10.0 mi SSW 9.2 mph - N/A   Clear
4:53 AM 64.0 °F 46.9 °F 54% 29.91 in 10.0 mi SSW 9.2 mph - N/A   Clear
5:53 AM 62.6 °F 46.4 °F 55% 29.92 in 10.0 mi SW 8.1 mph - N/A   Clear
6:53 AM 62.6 °F 48.2 °F 59% 29.92 in 10.0 mi SSW 9.2 mph - N/A   Overcast
7:53 AM 62.1 °F 48.9 °F 62% 29.92 in 10.0 mi SW 9.2 mph - 0.00 in Rain Light Rain
8:53 AM 64.0 °F 50.0 °F 60% 29.92 in 10.0 mi SSW 10.4 mph - 0.00 in   Mostly Cloudy
9:53 AM 66.2 °F 51.8 °F 60% 29.93 in 10.0 mi SW 13.8 mph 19.6 mph N/A   Overcast
10:53 AM 68.0 °F 53.1 °F 59% 29.92 in 10.0 mi SW 15.0 mph 20.7 mph N/A   Overcast
11:53 AM 73.0 °F 55.0 °F 53% 29.90 in 10.0 mi SW 13.8 mph - N/A   Clear
12:53 PM 72.0 °F 57.0 °F 59% 29.87 in 9.0 mi SW 9.2 mph - 0.00 in Rain Light Rain
1:53 PM 75.0 °F 57.9 °F 55% 29.86 in 10.0 mi SW 15.0 mph 18.4 mph 0.00 in   Mostly Cloudy
2:53 PM 71.1 °F 57.0 °F 61% 29.86 in 10.0 mi West 9.2 mph - N/A   Overcast
3:53 PM 66.9 °F 61.0 °F 81% 29.85 in 7.0 mi West 5.8 mph - 0.01 in Rain Light Rain
4:05 PM 66.2 °F 60.8 °F 83% 29.85 in 1.8 mi SW 5.8 mph - 0.02 in Rain Heavy Rain
4:32 PM 64.4 °F 60.8 °F 88% 29.83 in 3.0 mi West 3.5 mph - 0.19 in Rain Light Rain
4:53 PM 64.9 °F 61.0 °F 87% 29.83 in 7.0 mi Calm Calm - 0.19 in Rain Light Rain
5:53 PM 64.0 °F 61.0 °F 90% 29.84 in 6.0 mi NNW 6.9 mph - N/A   Overcast
6:53 PM 62.6 °F 60.8 °F 94% 29.84 in 4.0 mi North 4.6 mph - N/A   Overcast
7:04 PM 62.6 °F 60.8 °F 94% 29.85 in 4.0 mi North 3.5 mph - N/A   Overcast
7:12 PM 62.6 °F 60.8 °F 94% 29.85 in 4.0 mi NNW 5.8 mph - N/A   Overcast
7:21 PM 62.6 °F 60.8 °F 94% 29.84 in 3.0 mi NNW 3.5 mph - N/A   Overcast
7:51 PM 62.6 °F 60.8 °F 94% 29.86 in 4.0 mi NW 5.8 mph - N/A   Overcast
7:53 PM 63.0 °F 60.1 °F 90% 29.85 in 4.0 mi NW 5.8 mph - N/A   Overcast
8:53 PM 57.0 °F 54.0 °F 89% 29.86 in 4.0 mi North 8.1 mph - 0.01 in Rain Light Rain
9:53 PM 55.0 °F 52.0 °F 89% 29.87 in 7.0 mi North 9.2 mph - 0.00 in   Overcast
10:16 PM 55.4 °F 51.8 °F 88% 29.89 in 6.0 mi North 9.2 mph - N/A   Overcast
10:34 PM 53.6 °F 51.8 °F 94% 29.90 in 6.0 mi NNW 9.2 mph - N/A   Overcast
10:53 PM 54.0 °F 51.1 °F 90% 29.89 in 6.0 mi North 11.5 mph - N/A   Overcast
11:49 PM 53.6 °F 51.8 °F 94% 29.87 in 7.0 mi NNE 5.8 mph - 0.01 in Rain Light Rain
11:53 PM 53.1 °F 50.0 °F 89% 29.88 in 7.0 mi North 5.8 mph - 0.01 in   Overcast